Time,TemperatureF,DewpointF,PressureIn,WindDirection,WindDirectionDegrees,WindSpeedMPH,WindSpeedGustMPH,Humidity,HourlyPrecipIn,Conditions,Clouds,dailyrainin,SolarRadiationWatts/m^2,SoftwareType,DateUTC
2013-03-06 00:02:00,24.0,17.0,-100.00,NNW,342,8.0,12.0,73,0.00,,,0.00,0.000000,,2013-03-06 06:02:00,
2013-03-06 00:11:00,24.0,17.0,-100.00,NNW,342,8.0,12.0,73,0.00,,,0.00,0.000000,,2013-03-06 06:11:00,
2013-03-06 00:22:00,24.0,17.0,-100.00,NNW,342,8.0,12.0,73,0.00,,,0.00,0.000000,,2013-03-06 06:22:00,
2013-03-06 00:42:00,24.0,18.0,-100.00,NNW,338,10.0,15.0,79,0.00,,,0.00,0.000000,,2013-03-06 06:42:00,
2013-03-06 00:52:00,24.0,18.0,-100.00,NNW,338,10.0,15.0,79,0.00,,,0.00,0.000000,,2013-03-06 06:52:00,
2013-03-06 01:01:00,24.0,18.0,-100.00,NNW,338,10.0,15.0,79,0.00,,,0.00,0.000000,,2013-03-06 07:01:00,
2013-03-06 01:11:00,24.0,18.0,-100.00,NNW,338,10.0,15.0,79,0.00,,,0.00,0.000000,,2013-03-06 07:11:00,
2013-03-06 01:22:00,24.0,18.0,-100.00,NNW,338,10.0,15.0,79,0.00,,,0.00,0.000000,,2013-03-06 07:22:00,
2013-03-06 01:42:00,22.0,18.0,-100.00,NNW,346,10.0,15.0,86,0.00,,,0.00,0.000000,,2013-03-06 07:42:00,
2013-03-06 01:52:00,22.0,18.0,-100.00,NNW,346,10.0,15.0,86,0.00,,,0.00,0.000000,,2013-03-06 07:52:00,
2013-03-06 02:01:00,22.0,18.0,-100.00,NNW,346,10.0,15.0,86,0.00,,,0.00,0.000000,,2013-03-06 08:01:00,
2013-03-06 02:11:00,22.0,18.0,-100.00,NNW,346,10.0,15.0,86,0.00,,,0.00,0.000000,,2013-03-06 08:11:00,
2013-03-06 02:21:00,22.0,18.0,-100.00,NNW,346,10.0,15.0,86,0.00,,,0.00,0.000000,,2013-03-06 08:21:00,
2013-03-06 02:42:00,21.0,18.0,-100.00,NW,315,4.0,16.0,87,0.00,,,0.00,0.000000,,2013-03-06 08:42:00,
2013-03-06 02:52:00,21.0,18.0,-100.00,NW,315,4.0,16.0,87,0.00,,,0.00,0.000000,,2013-03-06 08:52:00,
2013-03-06 03:01:00,21.0,18.0,-100.00,NW,315,4.0,16.0,87,0.00,,,0.00,0.000000,,2013-03-06 09:01:00,
2013-03-06 03:12:00,21.0,18.0,-100.00,NW,315,4.0,16.0,87,0.00,,,0.00,0.000000,,2013-03-06 09:12:00,
2013-03-06 03:21:00,21.0,18.0,-100.00,NW,315,4.0,16.0,87,0.00,,,0.00,0.000000,,2013-03-06 09:21:00,
2013-03-06 03:42:00,19.0,17.0,-100.00,NW,318,4.0,7.0,93,0.00,,,0.00,0.000000,,2013-03-06 09:42:00,
2013-03-06 03:52:00,19.0,17.0,-100.00,NW,318,4.0,7.0,93,0.00,,,0.00,0.000000,,2013-03-06 09:52:00,
2013-03-06 04:01:00,19.0,17.0,-100.00,NW,318,4.0,7.0,93,0.00,,,0.00,0.000000,,2013-03-06 10:01:00,
2013-03-06 04:11:00,19.0,17.0,-100.00,NW,318,4.0,7.0,93,0.00,,,0.00,0.000000,,2013-03-06 10:11:00,
2013-03-06 04:21:00,19.0,17.0,-100.00,NW,318,4.0,7.0,93,0.00,,,0.00,0.000000,,2013-03-06 10:21:00,
2013-03-06 04:42:00,18.0,17.0,-100.00,NW,326,5.0,7.0,95,0.00,,,0.00,0.000000,,2013-03-06 10:42:00,
2013-03-06 04:52:00,18.0,17.0,-100.00,NW,326,5.0,7.0,95,0.00,,,0.00,0.000000,,2013-03-06 10:52:00,
2013-03-06 05:02:00,18.0,17.0,-100.00,NW,326,5.0,7.0,95,0.00,,,0.00,0.000000,,2013-03-06 11:02:00,
2013-03-06 05:11:00,18.0,17.0,-100.00,NW,326,5.0,7.0,95,0.00,,,0.00,0.000000,,2013-03-06 11:11:00,
2013-03-06 05:22:00,18.0,17.0,-100.00,NW,326,5.0,7.0,95,0.00,,,0.00,0.000000,,2013-03-06 11:22:00,
2013-03-06 05:42:00,18.0,17.0,-100.00,NNW,337,6.0,8.0,96,0.00,,,0.00,0.000000,,2013-03-06 11:42:00,
2013-03-06 05:52:00,18.0,17.0,-100.00,NNW,337,6.0,8.0,96,0.00,,,0.00,0.000000,,2013-03-06 11:52:00,
2013-03-06 06:02:00,18.0,17.0,-100.00,NNW,337,6.0,8.0,96,0.00,,,0.00,0.000000,,2013-03-06 12:02:00,
2013-03-06 06:11:00,18.0,17.0,-100.00,NNW,337,6.0,8.0,96,0.00,,,0.00,0.000000,,2013-03-06 12:11:00,
2013-03-06 06:21:00,18.0,17.0,-100.00,NNW,337,6.0,8.0,96,0.00,,,0.00,0.000000,,2013-03-06 12:21:00,
2013-03-06 06:43:00,16.0,15.0,-100.00,WNW,283,2.0,6.0,96,0.00,,,0.00,0.000000,,2013-03-06 12:43:00,
2013-03-06 06:53:00,16.0,15.0,-100.00,WNW,283,2.0,6.0,96,0.00,,,0.00,0.000000,,2013-03-06 12:53:00,
2013-03-06 07:02:00,16.0,15.0,-100.00,WNW,283,2.0,6.0,96,0.00,,,0.00,0.000000,,2013-03-06 13:02:00,
2013-03-06 07:12:00,16.0,15.0,-100.00,WNW,283,2.0,6.0,96,0.00,,,0.00,0.000000,,2013-03-06 13:12:00,
2013-03-06 07:22:00,16.0,15.0,-100.00,WNW,283,2.0,6.0,96,0.00,,,0.00,0.000000,,2013-03-06 13:22:00,
2013-03-06 07:42:00,17.0,16.0,-100.00,NNE,32,3.0,6.0,96,0.00,,,0.00,18.000000,,2013-03-06 13:42:00,
2013-03-06 07:52:00,17.0,16.0,-100.00,NNE,32,3.0,6.0,96,0.00,,,0.00,18.000000,,2013-03-06 13:52:00,
2013-03-06 08:01:00,17.0,16.0,-100.00,NNE,32,3.0,6.0,96,0.00,,,0.00,18.000000,,2013-03-06 14:01:00,
2013-03-06 08:11:00,17.0,16.0,-100.00,NNE,32,3.0,6.0,96,0.00,,,0.00,18.000000,,2013-03-06 14:11:00,
2013-03-06 08:21:00,17.0,16.0,-100.00,NNE,32,3.0,6.0,96,0.00,,,0.00,18.000000,,2013-03-06 14:21:00,
2013-03-06 08:42:00,25.0,22.0,-100.00,NE,35,6.0,9.0,87,0.00,,,0.00,162.000000,,2013-03-06 14:42:00,
2013-03-06 08:52:00,25.0,22.0,-100.00,NE,35,6.0,9.0,87,0.00,,,0.00,162.000000,,2013-03-06 14:52:00,
2013-03-06 09:02:00,25.0,22.0,-100.00,NE,35,6.0,9.0,87,0.00,,,0.00,162.000000,,2013-03-06 15:02:00,
2013-03-06 09:11:00,25.0,22.0,-100.00,NE,35,6.0,9.0,87,0.00,,,0.00,162.000000,,2013-03-06 15:11:00,
2013-03-06 09:21:00,25.0,22.0,-100.00,NE,35,6.0,9.0,87,0.00,,,0.00,162.000000,,2013-03-06 15:21:00,
2013-03-06 09:42:00,28.0,20.0,-100.00,ENE,59,10.0,16.0,72,0.00,,,0.00,362.000000,,2013-03-06 15:42:00,
2013-03-06 09:52:00,28.0,20.0,-100.00,ENE,59,10.0,16.0,72,0.00,,,0.00,362.000000,,2013-03-06 15:52:00,
2013-03-06 10:02:00,28.0,20.0,-100.00,ENE,59,10.0,16.0,72,0.00,,,0.00,362.000000,,2013-03-06 16:02:00,
2013-03-06 10:11:00,28.0,20.0,-100.00,ENE,59,10.0,16.0,72,0.00,,,0.00,362.000000,,2013-03-06 16:11:00,
2013-03-06 10:21:00,28.0,20.0,-100.00,ENE,59,10.0,16.0,72,0.00,,,0.00,362.000000,,2013-03-06 16:21:00,
2013-03-06 10:42:00,31.0,20.0,-100.00,East,93,8.0,17.0,64,0.00,,,0.00,542.000000,,2013-03-06 16:42:00,
2013-03-06 10:52:00,31.0,20.0,-100.00,East,93,8.0,17.0,64,0.00,,,0.00,542.000000,,2013-03-06 16:52:00,
2013-03-06 11:01:00,31.0,20.0,-100.00,East,93,8.0,17.0,64,0.00,,,0.00,542.000000,,2013-03-06 17:01:00,
2013-03-06 11:11:00,31.0,20.0,-100.00,East,93,8.0,17.0,64,0.00,,,0.00,542.000000,,2013-03-06 17:11:00,
2013-03-06 11:21:00,31.0,20.0,-100.00,East,93,8.0,17.0,64,0.00,,,0.00,542.000000,,2013-03-06 17:21:00,
2013-03-06 11:24:00,35.0,20.0,-100.00,North,350,4.0,11.0,55,0.00,,,0.00,672.000000,,2013-03-06 17:24:00,
2013-03-06 11:42:00,35.0,20.0,-100.00,North,350,4.0,11.0,55,0.00,,,0.00,672.000000,,2013-03-06 17:42:00,
2013-03-06 11:53:00,35.0,20.0,-100.00,North,350,4.0,11.0,55,0.00,,,0.00,672.000000,,2013-03-06 17:53:00,
2013-03-06 12:02:00,35.0,20.0,-100.00,North,350,4.0,11.0,55,0.00,,,0.00,672.000000,,2013-03-06 18:02:00,
2013-03-06 12:42:00,39.0,20.0,-100.00,SE,144,4.0,9.0,47,0.00,,,0.00,746.000000,,2013-03-06 18:42:00,
2013-03-06 12:53:00,39.0,20.0,-100.00,SE,144,4.0,9.0,47,0.00,,,0.00,746.000000,,2013-03-06 18:53:00,
2013-03-06 13:02:00,39.0,20.0,-100.00,SE,144,4.0,9.0,47,0.00,,,0.00,746.000000,,2013-03-06 19:02:00,
2013-03-06 13:11:00,39.0,20.0,-100.00,SE,144,4.0,9.0,47,0.00,,,0.00,746.000000,,2013-03-06 19:11:00,
2013-03-06 13:21:00,39.0,20.0,-100.00,SE,144,4.0,9.0,47,0.00,,,0.00,746.000000,,2013-03-06 19:21:00,
2013-03-06 13:43:00,41.0,20.0,-100.00,SSE,157,4.0,10.0,42,0.00,,,0.00,757.000000,,2013-03-06 19:43:00,
2013-03-06 13:53:00,41.0,20.0,-100.00,SSE,157,4.0,10.0,42,0.00,,,0.00,757.000000,,2013-03-06 19:53:00,
2013-03-06 14:02:00,41.0,20.0,-100.00,SSE,157,4.0,10.0,42,0.00,,,0.00,757.000000,,2013-03-06 20:02:00,
2013-03-06 14:12:00,41.0,20.0,-100.00,SSE,157,4.0,10.0,42,0.00,,,0.00,757.000000,,2013-03-06 20:12:00,
2013-03-06 14:22:00,41.0,20.0,-100.00,SSE,157,4.0,10.0,42,0.00,,,0.00,757.000000,,2013-03-06 20:22:00,
2013-03-06 14:43:00,42.0,18.0,-100.00,ESE,117,5.0,12.0,38,0.00,,,0.00,705.000000,,2013-03-06 20:43:00,
2013-03-06 14:53:00,42.0,18.0,-100.00,ESE,117,5.0,12.0,38,0.00,,,0.00,705.000000,,2013-03-06 20:53:00,
2013-03-06 15:02:00,42.0,18.0,-100.00,ESE,117,5.0,12.0,38,0.00,,,0.00,705.000000,,2013-03-06 21:02:00,
2013-03-06 15:12:00,42.0,18.0,-100.00,ESE,117,5.0,12.0,38,0.00,,,0.00,705.000000,,2013-03-06 21:12:00,
2013-03-06 15:22:00,42.0,18.0,-100.00,ESE,117,5.0,12.0,38,0.00,,,0.00,705.000000,,2013-03-06 21:22:00,
2013-03-06 15:42:00,43.0,19.0,-100.00,ESE,117,7.0,13.0,37,0.00,,,0.00,598.000000,,2013-03-06 21:42:00,
2013-03-06 15:52:00,43.0,19.0,-100.00,ESE,117,7.0,13.0,37,0.00,,,0.00,598.000000,,2013-03-06 21:52:00,
2013-03-06 16:01:00,43.0,19.0,-100.00,ESE,117,7.0,13.0,37,0.00,,,0.00,598.000000,,2013-03-06 22:01:00,
2013-03-06 16:11:00,43.0,19.0,-100.00,ESE,117,7.0,13.0,37,0.00,,,0.00,598.000000,,2013-03-06 22:11:00,
2013-03-06 16:21:00,43.0,19.0,-100.00,ESE,117,7.0,13.0,37,0.00,,,0.00,598.000000,,2013-03-06 22:21:00,
2013-03-06 16:42:00,43.0,20.0,-100.00,SE,144,8.0,13.0,39,0.00,,,0.00,440.000000,,2013-03-06 22:42:00,
2013-03-06 16:52:00,43.0,20.0,-100.00,SE,144,8.0,13.0,39,0.00,,,0.00,440.000000,,2013-03-06 22:52:00,
2013-03-06 17:01:00,43.0,20.0,-100.00,SE,144,8.0,13.0,39,0.00,,,0.00,440.000000,,2013-03-06 23:01:00,
2013-03-06 17:11:00,43.0,20.0,-100.00,SE,144,8.0,13.0,39,0.00,,,0.00,440.000000,,2013-03-06 23:11:00,
2013-03-06 17:21:00,43.0,20.0,-100.00,SE,144,8.0,13.0,39,0.00,,,0.00,440.000000,,2013-03-06 23:21:00,
2013-03-06 17:42:00,40.0,17.0,-100.00,SE,142,10.0,12.0,39,0.00,,,0.00,225.000000,,2013-03-06 23:42:00,
2013-03-06 17:52:00,40.0,17.0,-100.00,SE,142,10.0,12.0,39,0.00,,,0.00,225.000000,,2013-03-06 23:52:00,
2013-03-06 18:01:00,40.0,17.0,-100.00,SE,142,10.0,12.0,39,0.00,,,0.00,225.000000,,2013-03-07 00:01:00,
2013-03-06 18:11:00,40.0,17.0,-100.00,SE,142,10.0,12.0,39,0.00,,,0.00,225.000000,,2013-03-07 00:11:00,
2013-03-06 18:21:00,40.0,17.0,-100.00,SE,142,10.0,12.0,39,0.00,,,0.00,225.000000,,2013-03-07 00:21:00,
2013-03-06 18:42:00,35.0,20.0,-100.00,SE,129,9.0,13.0,53,0.00,,,0.00,30.000000,,2013-03-07 00:42:00,
2013-03-06 18:52:00,35.0,20.0,-100.00,SE,129,9.0,13.0,53,0.00,,,0.00,30.000000,,2013-03-07 00:52:00,
2013-03-06 19:01:00,35.0,20.0,-100.00,SE,129,9.0,13.0,53,0.00,,,0.00,30.000000,,2013-03-07 01:01:00,
2013-03-06 19:11:00,35.0,20.0,-100.00,SE,129,9.0,13.0,53,0.00,,,0.00,30.000000,,2013-03-07 01:11:00,
2013-03-06 19:21:00,35.0,20.0,-100.00,SE,129,9.0,13.0,53,0.00,,,0.00,30.000000,,2013-03-07 01:21:00,
2013-03-06 19:42:00,31.0,20.0,-100.00,SE,133,8.0,11.0,64,0.00,,,0.00,1.000000,,2013-03-07 01:42:00,
2013-03-06 19:52:00,31.0,20.0,-100.00,SE,133,8.0,11.0,64,0.00,,,0.00,1.000000,,2013-03-07 01:52:00,
2013-03-06 20:01:00,31.0,20.0,-100.00,SE,133,8.0,11.0,64,0.00,,,0.00,1.000000,,2013-03-07 02:01:00,
2013-03-06 20:11:00,31.0,20.0,-100.00,SE,133,8.0,11.0,64,0.00,,,0.00,1.000000,,2013-03-07 02:11:00,
2013-03-06 20:21:00,31.0,20.0,-100.00,SE,133,8.0,11.0,64,0.00,,,0.00,1.000000,,2013-03-07 02:21:00,
2013-03-06 21:02:00,29.0,20.0,-100.00,ESE,116,7.0,11.0,70,0.00,,,0.00,0.000000,,2013-03-07 03:02:00,
2013-03-06 21:11:00,29.0,20.0,-100.00,ESE,116,7.0,11.0,70,0.00,,,0.00,0.000000,,2013-03-07 03:11:00,
2013-03-06 21:21:00,29.0,20.0,-100.00,ESE,116,7.0,11.0,70,0.00,,,0.00,0.000000,,2013-03-07 03:21:00,
2013-03-06 21:42:00,28.0,21.0,-100.00,East,98,7.0,10.0,76,0.00,,,0.00,0.000000,,2013-03-07 03:42:00,
2013-03-06 21:52:00,28.0,21.0,-100.00,East,98,7.0,10.0,76,0.00,,,0.00,0.000000,,2013-03-07 03:52:00,
2013-03-06 22:01:00,28.0,21.0,-100.00,East,98,7.0,10.0,76,0.00,,,0.00,0.000000,,2013-03-07 04:01:00,
2013-03-06 22:11:00,28.0,21.0,-100.00,East,98,7.0,10.0,76,0.00,,,0.00,0.000000,,2013-03-07 04:11:00,
2013-03-06 22:21:00,28.0,21.0,-100.00,East,98,7.0,10.0,76,0.00,,,0.00,0.000000,,2013-03-07 04:21:00,
2013-03-06 22:42:00,28.0,21.0,-100.00,East,91,10.0,13.0,74,0.00,,,0.00,0.000000,,2013-03-07 04:42:00,
2013-03-06 22:52:00,28.0,21.0,-100.00,East,91,10.0,13.0,74,0.00,,,0.00,0.000000,,2013-03-07 04:52:00,
2013-03-06 23:02:00,28.0,21.0,-100.00,East,91,10.0,13.0,74,0.00,,,0.00,0.000000,,2013-03-07 05:02:00,
2013-03-06 23:12:00,28.0,21.0,-100.00,East,91,10.0,13.0,74,0.00,,,0.00,0.000000,,2013-03-07 05:12:00,
2013-03-06 23:22:00,28.0,21.0,-100.00,East,91,10.0,13.0,74,0.00,,,0.00,0.000000,,2013-03-07 05:22:00,
2013-03-06 23:42:00,28.0,22.0,-100.00,ESE,109,11.0,15.0,79,0.00,,,0.00,0.000000,,2013-03-07 05:42:00,
2013-03-06 23:52:00,28.0,22.0,-100.00,ESE,109,11.0,15.0,79,0.00,,,0.00,0.000000,,2013-03-07 05:52:00,